Vertical_Velocity
4 -0 1 -1 -3 1 -1 1 0 1 2 2 2 1 1 -2 -0 1 0 -2 -0 -2 -1 -2 -2 -1 -2 -1 -2 -3 0 3 5
4 -1 1 3 -1 2 0 0 0 0 -2 0 1 2 2 -2 1 0 1 -0 0 -0 -0 -1 -2 -2 -3 -0 -3 -4 -4 -5 -2
3 -0 1 0 2 -0 2 1 2 1 1 0 2 2 0 2 0 1 1 0 -1 0 1 1 -1 -0 -3 -2 -2 -2 -1 -1 3
-0 1 2 0 3 0 3 -0 -0 0 0 0 1 1 -0 -0 1 1 0 0 2 1 -1 -1 -1 -1 -3 -1 -3 -2 -1 -3 -2
-1 3 0 2 1 -1 -1 -2 1 -2 -0 -3 -1 -1 -0 -1 -2 -1 -3 -2 -1 1 -1 12 9 5 0 2 1 1 -1 -1 -3
-2 2 2 2 -1 -3 3 -0 4 3 2 -1 -2 -0 -2 1 1 -2 -1 0 0 -1 1 -1 -1 3 9 13 6 4 1 1 2
2 -1 1 0 -1 -1 1 0 -2 -3 -4 -0 -1 0 -0 -0 -0 -0 1 1 -1 -1 -1 -4 -2 -2 -2 4 5 9 8 6 8
2 -0 0 -0 -2 3 -1 -1 -1 -0 1 -1 -1 -1 0 -1 -0 -0 -1 -1 0 2 1 -1 3 -1 -3 -2 -1 -1 -2 -1 -1
0 -0 1 0 -1 2 0 1 -2 1 -2 -1 -1 -1 0 1 1 -1 -1 1 -0 1 -2 5 -2 -1 -1 -1 -2 0 -4 -1 -1
2 -1 -1 -2 1 1 -3 -1 2 0 0 -0 -1 0 -0 -1 -1 -0 -1 -0 -0 1 3 -1 -1 1 2 2 2 -1 -2 -3 -0
-2 -0 -1 -2 1 -0 -2 2 1 0 1 -1 -1 -1 -0 -0 -0 1 1 0 0 0 1 -0 -0 0 1 -0 -1 -1 -1 -1 -0
1 -3 -1 1 -1 0 -3 1 0 2 2 -0 0 1 -1 0 1 0 -1 -0 0 1 1 0 -0 -0 1 0 1 2 1 -2 -2
1 -1 2 -0 1 -3 -0 1 2 -1 -1 -2 1 1 0 1 1 0 0 -0 -0 1 0 -0 -0 -0 -1 -2 -1 -2 0 -1 -1
2 -3 -3 2 -2 -0 -1 -2 -3 -3 -2 -2 -0 -1 0 1 2 1 1 1 -0 -0 -0 0 -0 -1 -1 -1 -0 -1 -1 -2 -2
-1 -3 1 1 -1 -1 -2 -3 -2 -3 -4 -2 -2 -3 -0 1 2 0 0 -1 -1 -0 0 1 0 -1 -2 -2 -1 -1 -1 -1 -2
-3 -0 0 0 -0 -2 -2 -1 -1 -2 -1 -6 -1 -2 -1 0 2 0 0 2 -0 -1 -1 -1 0 -1 0 -1 -0 -1 0 -1 -1
-3 0 -1 -1 -3 -2 -0 -2 -3 -5 -4 -4 -3 -4 -4 0 -2 1 -1 -1 -2 -3 -1 -2 -3 -4 -4 -2 -1 -2 -1 -0 -1
-0 1 -2 -1 -0 -1 -3 -4 -4 -3 -2 -2 -4 -1 -2 -7 -6 -8 -3 -4 -2 -2 -3 -3 -2 -2 -3 -2 -2 0 -0 -1 -2
-1 0 -1 1 -2 -2 -4 -3 -3 -1 -3 -2 -1 2 2 -2 -7 -4 -3 1 1 -2 -6 -4 -3 -2 -1 -1 -2 -4 -4 -3 -2
1 -0 1 -2 -2 -2 -3 -1 -1 -2 -1 -1 -4 -4 -3 2 1 -10 -16 -5 -3 0 -2 -2 -0 -2 -0 0 -1 -2 -1 -4 -4
Height
1517 1517 1517 1515 1516 1517 1517 1517 1518 1519 1519 1519 1518 1518 1516 1517 1517 1516 1515 1515 1514 1514 1514 1515 1516 1516 1516 1516 1515 1516 1516 1517 1517
1518 1517 1518 1517 1517 1517 1517 1518 1518 1517 1518 1518 1517 1516 1516 1516 1516 1515 1515 1514 1514 1513 1512 1512 1513 1513 1514 1514 1514 1514 1514 1514 1514
1518 1518 1518 1518 1518 1518 1518 1517 1517 1517 1517 1518 1518 1517 1516 1515 1515 1515 1514 1513 1513 1512 1512 1511 1511 1511 1511 1511 1511 1511 1511 1512 1512
1517 1518 1518 1518 1518 1518 1518 1517 1518 1518 1517 1518 1518 1516 1515 1515 1514 1514 1513 1512 1512 1511 1510 1510 1510 1509 1509 1509 1509 1509 1508 1508 1508
1517 1518 1518 1519 1518 1519 1518 1517 1518 1517 1516 1517 1517 1516 1515 1514 1513 1512 1511 1511 1511 1510 1509 1508 1507 1507 1506 1506 1505 1505 1505 1504 1504
1517 1517 1518 1518 1518 1519 1518 1517 1517 1517 1516 1516 1516 1515 1513 1513 1512 1511 1510 1510 1509 1508 1507 1505 1504 1503 1503 1503 1502 1502 1501 1500 1500
1517 1516 1517 1518 1518 1519 1518 1517 1516 1516 1515 1514 1513 1513 1511 1511 1509 1508 1508 1507 1506 1505 1504 1503 1502 1501 1500 1500 1499 1497 1496 1496 1495
1516 1516 1517 1518 1518 1518 1517 1517 1515 1514 1513 1512 1511 1510 1509 1508 1507 1505 1505 1504 1503 1502 1500 1499 1499 1497 1496 1496 1494 1493 1492 1491 1490
1515 1516 1516 1517 1517 1517 1516 1516 1514 1512 1511 1510 1508 1508 1506 1505 1503 1502 1501 1500 1500 1499 1497 1497 1494 1493 1493 1492 1490 1489 1487 1487 1486
1514 1515 1515 1515 1515 1515 1515 1514 1512 1510 1508 1507 1506 1505 1503 1501 1500 1498 1497 1496 1496 1495 1494 1491 1490 1490 1489 1488 1486 1484 1483 1482 1481
1514 1514 1514 1514 1513 1513 1512 1511 1509 1507 1506 1504 1503 1501 1499 1497 1496 1494 1493 1492 1492 1491 1490 1488 1487 1486 1485 1483 1482 1480 1479 1478 1476
1511 1512 1513 1513 1511 1510 1509 1509 1506 1505 1503 1502 1500 1497 1495 1494 1492 1491 1490 1489 1489 1487 1486 1485 1483 1482 1481 1479 1477 1476 1474 1471 1470
1509 1510 1511 1510 1509 1508 1507 1506 1504 1501 1499 1498 1497 1494 1492 1490 1489 1488 1487 1487 1486 1484 1482 1480 1479 1478 1476 1474 1473 1470 1468 1465 1464
1508 1508 1509 1508 1507 1506 1504 1502 1500 1497 1496 1495 1493 1490 1489 1487 1485 1485 1484 1484 1483 1481 1480 1478 1476 1474 1471 1469 1467 1465 1462 1459 1457
1505 1507 1507 1505 1504 1503 1501 1499 1496 1493 1492 1491 1489 1487 1485 1484 1482 1482 1482 1481 1479 1477 1475 1473 1471 1468 1466 1464 1461 1458 1455 1452 1449
1502 1504 1504 1503 1502 1500 1498 1496 1494 1492 1489 1487 1485 1483 1482 1480 1480 1479 1479 1477 1476 1474 1472 1469 1466 1463 1459 1456 1453 1449 1447 1444 1441
1501 1502 1501 1501 1499 1497 1495 1494 1492 1490 1487 1485 1481 1479 1478 1477 1478 1477 1474 1472 1471 1469 1466 1463 1460 1456 1453 1449 1445 1441 1438 1435 1433
1499 1499 1498 1497 1496 1494 1493 1492 1490 1490 1488 1485 1486 1482 1478 1471 1468 1469 1467 1466 1463 1461 1458 1455 1452 1449 1445 1440 1436 1433 1429 1427 1425
1496 1496 1496 1495 1494 1492 1491 1490 1489 1488 1486 1486 1484 1483 1480 1475 1462 1459 1459 1456 1454 1451 1449 1446 1443 1440 1436 1433 1428 1425 1421 1419 1417
1493 1493 1494 1493 1492 1490 1490 1489 1487 1486 1484 1482 1480 1478 1475 1474 1468 1454 1449 1448 1446 1443 1440 1438 1435 1432 1428 1424 1420 1416 1414 1411 1409